Regional Weather Roundup
Issued by NWS Mobile, AL

Home | Current Version | Previous Version | Text Only | Print | Product List | Glossary On
Versions: 1 2 3 4 5 6 7 8 9 10 11 12 13 14 15 16 17 18 19 20 21 22 23 24 25 26 27 28 29 30 31 32 33 34 35 36 37 38 39 40 41 42 43 44 45 46 47 48 49 50
000
ASUS44 KMOB 121812
RWRMOB
REGIONAL WEATHER ROUNDUP
NATIONAL WEATHER SERVICE MOBILE AL
1200 PM CST TUE DEC 12 2017

NOTE: "FAIR" INDICATES FEW OR NO CLOUDS BELOW 12,000 FEET WITH NO
      SIGNIFICANT WEATHER AND/OR OBSTRUCTIONS TO VISIBILITY.

  * THESE STATIONS ARE PART OF THE UNIVERSITY OF SOUTH ALABAMA
    MESONET AND ARE NOT UNDER NWS OR FAA QUALITY CONTROL.

ALZ061>064-121900-
COASTAL ALABAMA

CITY           SKY/WX    TMP DP  RH WIND       PRES   REMARKS
MOBILE REG APT SUNNY     60  33  36 N17G24    30.10F
6HR MIN TEMP:  46; 6HR MAX TEMP:  60;

BROOKLEY FIELD SUNNY     62  35  36 MISG      30.10F
6HR MIN TEMP:  49; 6HR MAX TEMP:  62;

USA CAMPUS*    NOT AVBL
DOG RIVER*     NOT AVBL


CITY           SKY/WX    TMP DP  RH WIND       PRES   REMARKS
GULF SHORES    SUNNY     60  33  35 N13G21    30.07F

$$

ALZ051>060-121900-
INTERIOR SOUTHWEST AND SOUTH CENTRAL ALABAMA

CITY           SKY/WX    TMP DP  RH WIND       PRES   REMARKS
GREENVILLE     SUNNY     56  30  37 NW12      30.02F
6HR MIN TEMP:  46; 6HR MAX TEMP:  57;

EVERGREEN      SUNNY     59  32  36 NW12      30.05F
6HR MIN TEMP:  47; 6HR MAX TEMP:  59;

ATMORE*          N/A    N/A N/A N/A NW18        N/A
ANDALUSIA/OPP  SUNNY     60  31  33 NW18G30   30.03F
6HR MIN TEMP:  47; 6HR MAX TEMP:  61;

ANDALUSIA*       N/A     57  34  41 NW7       30.03F
FLORALA APT    SUNNY     58  31  35 NW8G23    30.04F
6HR MIN TEMP:  45; 6HR MAX TEMP:  58; 6HR PCP: TRACE;

FLORALA*         N/A     57  34  41 W6        30.72F

$$

FLZ001>006-121900-
WESTERN FLORIDA PANHANDLE

CITY           SKY/WX    TMP DP  RH WIND       PRES   REMARKS
PENSACOLA      SUNNY     61  33  35 NW21G26   30.05F
6HR MIN TEMP:  50; 6HR MAX TEMP:  61;

NAS PENSACOLA  SUNNY     62  33  33 NW14G25   30.05F
6HR MIN TEMP:  52; 6HR MAX TEMP:  62;

MILTON         SUNNY     58  32  37 NW10G24   30.05F
6HR MIN TEMP:  46; 6HR MAX TEMP:  60;

WHTNG S FIELD  SUNNY     63  33  32 N18G25    30.05F
6HR MIN TEMP:  50; 6HR MAX TEMP:  63;



CITY           SKY/WX    TMP DP  RH WIND       PRES   REMARKS
JAY*             N/A     57  32  38 NW13      30.05F
DUKE FIELD     SUNNY     60  30  32 NW21G29   30.03F
CRESTVIEW      SUNNY     60  31  33 NW18G26   30.05F
6HR MIN TEMP:  47; 6HR MAX TEMP:  61;

VALPARAISO     SUNNY     61  30  31 N18G26    30.03F
6HR MIN TEMP:  50; 6HR MAX TEMP:  61;

DESTIN         SUNNY     64  32  30 NW20      30.03F
6HR MIN TEMP:  56; 6HR MAX TEMP:  65;


$$

MSZ076-079-121900-
INTERIOR SOUTHEAST MISSISSIPPI

CITY           SKY/WX    TMP DP  RH WIND       PRES   REMARKS
LEAKESVILLE*     N/A     57  32  38 N7        30.12F
AGRICOLA*        N/A     57  34  41 NW8       30.10F

$$

MARINE OBSERVATIONS

STATION/POSITION TIME  TEMP    WIND        PRES    WAVE
                       AIR SEA DIR/SP/G            HT/PER
                 (UTC) (F)     (DEG/KT/KT) (MB)    (FT/S)
PASCAGOULA       1748   58     350/ 14/ 19 1019.3F
PETIT BOIS ISLND 1748   56     340/ 15/ 18 1020.2F
KATRINA CUT      1730   56     350/ 19     1019.6F
CEDAR POINT      1730   57     350/ 15     1019.0F
E DAUPHIN ISLAND 1700   54     360/ 16/ 18 1019.4F
MIDDLE BAY LIGHT 1730   56     340/ 15     1019.0F
USCG MOBILE BAY  1748   58 56  340/  7/ 15 1018.8F
STATE DOCKS      1748   60                 1018.8F
MEAHER PARK      1730   57     340/  9     1019.6F
WEEKS BAY        1645   60                 1019.0F
FORT MORGAN      1748   55      10/ 16/ 18   N/A
12 S ORANGE BCH  NOT AVBL
PENSACOLA BAY    1748   59 57              1017.8F
64 S DAUPHIN ISL 1750   61 74  350/ 17/ 23 1019.4F   6/ 6
67 S FORT MORGAN 1730   62                 1019.3F

$$

SELECTED LOCATIONS ACROSS THE REGION

CITY           SKY/WX    TMP DP  RH WIND       PRES   REMARKS
NEW ORLEANS    SUNNY     60  37  42 N13       30.17F
GULFPORT       SUNNY     61  34  36 N17G25    30.11F
PASCAGOULA AP  SUNNY     61  32  33 N14G23    30.10F
PASCAGOULA*      N/A     59  32  36 N9          N/A
HATTIESBURG    SUNNY     57  35  43 N15       30.15F
LAUREL         SUNNY     58  35  42 N13       30.15F
MERIDIAN       SUNNY     57  34  41 NW14      30.13F
JACKSON        SUNNY     58  33  39 NW10G20   30.17F
MONTGOMERY     MOSUNNY   56  32  40 NW15G24   30.04F
TROY           SUNNY     57  33  40 NW15G25   30.02F
ASHFORD*         N/A     57  34  41 NW7       30.03F
DOTHAN         SUNNY     58  33  39 NW18      30.01F
PANAMA CITY    SUNNY     62  34  35 NW20G26   29.99F

$$




USA.gov is the U.S. government's official web portal to all federal, state and local government web resources and services.